Palmdale, CA

4:26 AM PDT on August 24, 2016 (GMT -0700)
Palmdale Af Plant 42

Weather History for KPMD - August, 2013

Change the Weather History Date:

Saturday, August 31, 2013

  Actual Average Record
Temperature  
Mean Temperature 85 °F 79 °F  
Max Temperature 94 °F 95 °F 109 °F (1996)
Min Temperature 76 °F 62 °F 45 °F (1957)
Degree Days  
Heating Degree Days 0 0  
Month to date heating degree days 0 0  
Since 1 June heating degree days 0 7  
Since 1 July heating degree days 0 0  
Cooling Degree Days 20 14  
Month to date cooling degree days 500 504  
Year to date cooling degree days 1765 1482  
Since 1 June cooling degree days 1534 1312  
Growing Degree Days 36 (Base 50)    
Moisture  
Dew Point 62 °F    
Average Humidity 46    
Maximum Humidity 58    
Minimum Humidity 33    
Precipitation  
Precipitation 0.00 in 0.01 in 0.52 in (1938)
Month to date precipitation 0.04 0.14  
Year to date precipitation 0.99 5.56  
Since 1 July precipitation 0.13  
Snow  
Snow 0.00 in - 0.00 in (1973)
Month to date snowfall 0.0  
Since 1 June snowfall 0.0  
Since 1 July snowfall 0.0  
Snow Depth 0.00 in    
Sea Level Pressure  
Sea Level Pressure 29.91 in    
Wind  
Wind Speed 15 mph (WSW)    
Max Wind Speed 28 mph    
Max Gust Speed 35 mph    
Visibility 10 miles    
Events      
T = Trace of Precipitation, MM = Missing Value Source: NWS Daily Summary

Daily Weather History Graph

Daily Weather History Graph

Search for Another Location

Airport or City:

Trip Planner

Search our weather history database for the weather conditions in past years. The results will help you decide how hot, cold, wet, or windy it might be!

Date:

Astronomy

Aug. 31, 2013 Rise Set
Actual Time 6:24 AM PDT 7:19 PM PDT
Civil Twilight 5:59 AM PDT 7:45 PM PDT
Nautical Twilight 5:28 AM PDT 8:15 PM PDT
Astronomical Twilight 4:57 AM PDT 8:46 PM PDT
Moon 2:04 AM PDT (8/31) 4:14 PM PDT (8/31)
Length of Visible Light 13h 46m
Length of Day
12h 54m
Waning Crescent, 20% of the Moon is Illuminated
Aug 31
Waning Crescent
Sep 5
New
Sep 12
First Quarter
Sep 19
Full
Sep 26
Last Quarter

Hourly Weather History & Observations

Time (PDT) Temp. Heat Index Dew Point Humidity Pressure Visibility Wind Dir Wind Speed Gust Speed Precip Events Conditions
12:53 AM 81.0 °F 81.9 °F 62.1 °F 52% 29.93 in 10.0 mi SW 10.4 mph - N/A   Clear
1:53 AM 81.0 °F 81.7 °F 61.0 °F 50% 29.92 in 10.0 mi WSW 5.8 mph - N/A   Clear
2:53 AM 80.1 °F 81.1 °F 61.0 °F 52% 29.91 in 10.0 mi WSW 10.4 mph - N/A   Clear
3:53 AM 80.1 °F 81.1 °F 61.0 °F 52% 29.91 in 10.0 mi SW 9.2 mph - N/A   Clear
4:53 AM 79.0 °F - 62.1 °F 56% 29.92 in 10.0 mi West 9.2 mph - N/A   Clear
5:53 AM 79.0 °F - 63.0 °F 58% 29.93 in 10.0 mi West 9.2 mph - N/A   Clear
6:53 AM 79.0 °F - 63.0 °F 58% 29.95 in 10.0 mi WSW 8.1 mph - N/A   Partly Cloudy
7:53 AM 80.1 °F 81.5 °F 63.0 °F 56% 29.95 in 10.0 mi WNW 6.9 mph - N/A   Clear
8:53 AM 82.0 °F 83.0 °F 62.1 °F 51% 29.96 in 10.0 mi WSW 8.1 mph - N/A   Clear
9:53 AM 84.9 °F 85.4 °F 62.1 °F 46% 29.96 in 10.0 mi WSW 5.8 mph - N/A   Clear
10:53 AM 89.1 °F 89.0 °F 61.0 °F 39% 29.95 in 10.0 mi SW 15.0 mph - N/A   Clear
11:53 AM 91.0 °F 90.5 °F 60.1 °F 35% 29.93 in 10.0 mi SW 18.4 mph - N/A   Clear
12:53 PM 93.0 °F 93.0 °F 61.0 °F 34% 29.90 in 10.0 mi WSW 16.1 mph - N/A   Clear
1:53 PM 93.9 °F 94.0 °F 61.0 °F 33% 29.88 in 10.0 mi WSW 21.9 mph - N/A   Clear
2:53 PM 91.9 °F 91.8 °F 61.0 °F 35% 29.87 in 10.0 mi WSW 26.5 mph 29.9 mph N/A   Clear
3:53 PM 91.0 °F 90.9 °F 61.0 °F 36% 29.86 in 10.0 mi SW 23.0 mph 31.1 mph N/A   Clear
4:53 PM 90.0 °F 90.0 °F 61.0 °F 38% 29.85 in 10.0 mi SSW 25.3 mph 29.9 mph N/A   Clear
5:53 PM 88.0 °F 88.4 °F 62.1 °F 42% 29.86 in 10.0 mi SW 20.7 mph 27.6 mph N/A   Clear
6:53 PM 84.9 °F 85.9 °F 63.0 °F 48% 29.86 in 10.0 mi SW 20.7 mph 28.8 mph N/A   Clear
7:53 PM 82.0 °F 83.1 °F 63.0 °F 52% 29.89 in 10.0 mi SW 16.1 mph 26.5 mph N/A   Clear
8:53 PM 80.1 °F 81.5 °F 63.0 °F 56% 29.92 in 10.0 mi SW 18.4 mph - N/A   Clear
9:53 PM 79.0 °F - 63.0 °F 58% 29.92 in 10.0 mi SW 16.1 mph - N/A   Clear
10:53 PM 79.0 °F - 63.0 °F 58% 29.92 in 10.0 mi SW 12.7 mph - N/A   Clear
11:53 PM 78.1 °F - 61.0 °F 56% 29.91 in 10.0 mi SW 17.3 mph - N/A   Clear